Regional Weather Roundup
Issued by NWS

Home | Current Version | Previous Version | Text Only | Print | Product List | Glossary On
Versions: 1 2 3 4 5 6 7 8 9 10 11 12 13 14 15 16 17 18 19 20 21 22 23 24 25 26 27 28 29 30 31 32 33 34 35 36 37 38 39 40 41 42 43 44 45 46 47 48 49 50
000
ASUS45 KTFX 280910
RWRMT
MONTANA REGIONAL WEATHER ROUNDUP
NATIONAL WEATHER SERVICE GREAT FALLS MT
300 AM MDT FRI APR 28 2017

NOTE: "FAIR" INDICATES FEW OR NO CLOUDS BELOW 12000 FEET WITH NO
SIGNIFICANT WEATHER AND/OR OBSTRUCTIONS TO VISIBILITY.

MTZ001>007-043-281000-
WEST OF THE DIVIDE

CITY           SKY/WX    TMP DP  RH WIND       PRES   REMARKS
KALISPELL      CLOUDY    40  37  89 CALM      29.93R
MISSOULA       CLOUDY    38  33  82 CALM      29.96R
BUTTE          CLOUDY    31  21  66 NW6       29.90R WCI  25
MULLAN PASS    FOG       27  27 100 CALM      29.90R VSB 1/2
ANACONDA         N/A     30  21  69 CALM      29.92R
DEER LODGE       N/A     28  25  86 CALM      29.95R
EUREKA           N/A     43  36  75 SE7       29.92R
HAMILTON         N/A     36  25  64 S5        29.96R
LIBBY            N/A     34  32  93 CALM      29.93R
PLAINS           N/A     41  34  76 CALM      29.96R
$$

MTZ008-052>055-281000-
SOUTHWEST MONTANA

CITY           SKY/WX    TMP DP  RH WIND       PRES   REMARKS
BOZEMAN        CLOUDY    36  33  89 W8        29.87S WCI  30
DILLON         CLOUDY    31  25  78 SW5       29.88R
W YELLOWSTONE  FOG       25  25 100 CALM      29.80S VSB 1/2
ENNIS          CLOUDY    30  28  93 N5        29.91R
THREE FORKS      N/A     35  34  96 CALM      29.89R
TWIN BRIDGES     N/A     36  20  52 N10       29.88R WCI  28
$$

MTZ009-010-012-014-046-048-049-054-281000-
EAST SLOPES AND CENTRAL MONTANA

CITY           SKY/WX    TMP DP  RH WIND       PRES   REMARKS
CUT BANK       CLOUDY    34  32  92 NW8       29.88R WCI  27
GREAT FALLS    CLOUDY    37  34  89 SW8       29.88R WCI  31
MALMSTROM AFB  CLOUDY    37  37  99 SW8       29.89R WCI  31
HELENA         CLOUDY    35  26  69 W5        29.89R
AUGUSTA          N/A     27  28 100 N6        29.87R WCI  21
BOWMANS CRNR     N/A     29  29  99 W6        29.86R WCI  23
CHOTEAU          N/A     34  34 100 CALM      29.90R
FAIRFIELD      MOCLDY    34  32  93 SW3       29.87S
POWER          MOCLDY    36  35  95 W3        29.87R
RAYNESFORD     LGT RAIN  35  34  96 CALM      29.88S
ULM            MOCLDY    37  34  92 CALM      29.89R
$$

MTZ011-013-016-021-045-047-050-051-281000-
NORTH CENTRAL MONTANA

CITY           SKY/WX    TMP DP  RH WIND       PRES   REMARKS
HAVRE          CLOUDY    32  31  96 CALM      29.88S
LEWISTOWN      CLOUDY    36  34  92 NW10      29.85R WCI  28
CHINOOK          N/A     32  32 100 CALM      29.90S
DENTON         MOCLDY    38  35  89 MISG      29.84R
FORT BENTON      N/A     41  37  87 N3        29.91R
GEYSER         MOCLDY    35  34  94 SW8       29.87R WCI  29
GRASS RANGE    CLOUDY    39  35  84 N8        29.81R
JUDITH GAP     MOCLDY    33  31  93 N21       29.82R WCI  21
STANFORD       MOCLDY    34  33  94 NW12      29.86R WCI  26
WINIFRED       CLOUDY    37  37  99 NW5       29.85S
$$

MTZ017>020-022>027-061-062-281000-
NORTHEAST MONTANA

CITY           SKY/WX    TMP DP  RH WIND       PRES   REMARKS
GLASGOW        CLOUDY    41  17  38 E7        29.87R
JORDAN           N/A     39  26  59 E5        29.83R
SIDNEY         CLEAR     30  20  66 N7        29.90R WCI  23
WOLF POINT     CLOUDY    36  19  50 E8        29.89R WCI  30
PLENTYWOOD       N/A     34  18  51 E6        29.91R WCI  29
POPLAR           N/A     34  18  51 NE7       29.90R WCI  28
SCOBEY           N/A     36  13  39 CALM      29.88R
$$

MTZ028>42-056>058-281000-
SOUTHCENTRAL AND SOUTHEAST MONTANA

CITY           SKY/WX    TMP DP  RH WIND       PRES   REMARKS
BAKER          PTCLDY    27  21  78 SE7       29.84R WCI  19
BILLINGS       LGT RAIN  39  37  92 N7        29.81S
LIVINGSTON     CLOUDY    36  30  79 N5        29.84S
MILES CITY     MOCLDY    36  27  69 N10       29.82R WCI  28
BIG TIMBER     CLOUDY    36  32  87 SW8       29.86R WCI  29
EKALAKA          N/A     34  24  67 SE7       29.80R WCI  28
LAUREL           N/A     38  32  79 CALM      29.82S
ROUNDUP          N/A     39  34  82 NW7       29.76R
$$

REGIONAL REPORTS...DAKOTAS

CITY           SKY/WX    TMP DP  RH WIND       PRES   REMARKS
WILLISTON      CLEAR     30  22  72 VRB3      29.92R
MINOT          CLEAR     28  24  85 SW7       29.93R WCI  21
DICKINSON      PTCLDY    25  17  72 E9        29.86R WCI  15
BEACH          CLOUDY    27  18  69 SE3       29.89R
TIOGA            N/A     25  23  93 CALM      29.94R
WATFORD CITY     N/A     28  21  74 E7        29.90R WCI  21
BISMARCK       CLEAR     30  26  85 CALM      29.92R
GRAND FORKS    PTCLDY    33  29  85 W6        29.86S WCI  28
FARGO          CLEAR     29  25  85 W5        29.87R
BUFFALO SD       N/A     33  26  75 E10       29.75R WCI  25
RAPID CITY     CLOUDY    38  30  73 NE12      29.76R WCI  30
$$

REGIONAL REPORTS...WYOMING/IDAHO/WASHINGTON

CITY           SKY/WX    TMP DP  RH WIND       PRES   REMARKS
GILLETTE       SNOW      33  33 100 NE7       29.71R WCI  27
SHERIDAN       LGT SNOW  33  32  96 NW6       29.78R FOG     WCI  28
BUFFALO WY     SNOW      33  31  92 N21       29.74R VSB 1/2 WCI  21
CODY           FLURRIES  34  30  86 N15       29.76S WCI  24
YELLOWSTONE LA   N/A     24  21  88 VRB3      29.77S
IDAHO FALLS    CLOUDY    33  33 100 SW10      29.85R WCI  25
SALMON         CLOUDY    36  25  64 CALM      29.94S
BOISE          CLEAR     37  30  75 W9        29.99R WCI  30
SPOKANE        MOCLDY    42  31  64 CALM      29.96R
$$

REGIONAL REPORTS...ALBERTA

CITY           SKY/WX    TMP DP  RH WIND       PRES   REMARKS
EDMONTON       MOCLDY    30  28  93 SE2       29.98R
CALGARY        CLOUDY    32  28  86 N3        29.92R FOG
LETHBRIDGE     CLOUDY    39  37  93 W7        29.90R
MEDICINE HAT   CLEAR     32  30  93 N7        29.89R WCI  26
CARDSTON         N/A     36  34  93 CALM        N/A
MILK RIVER       N/A     37  37 100 NW5         N/A
$$

REGIONAL REPORTS...SASKATCHEWAN

CITY           SKY/WX    TMP DP  RH WIND       PRES   REMARKS
SWIFT CURRENT  CLOUDY    36  36 100 E5        29.88R
REGINA         MOCLDY    34  19  55 SE14      29.92R WCI  24
SASKATOON      CLOUDY    43  23  45 SE9       29.93R
CYPRESS HILLS    N/A     30  25  80 SW3         N/A
VAL MARIE        N/A     37  36  93 S2          N/A
ROCKGLEN         N/A     34  18  51 S7          N/A  WCI  28
ASSINIBOIA       N/A     34  34 100 NW5         N/A
$$



USA.gov is the U.S. government's official web portal to all federal, state and local government web resources and services.